This is the latest recevied weather packets stored in our database for station/object SP1BMW-13. If no packets are shown the sender has not sent any weather packets the latest 10 day(s).
| Time | Temp. | Humidity | Pressure | Rain* | Wind** | Luminosity | Snow |
|---|---|---|---|---|---|---|---|
| 1778041791 | 9.44° C | 96% | 1005.6 hPa | 2.29 mm | 0.89 m/s, 24° | 6 W/m² | - |
| 1778041730 | 9.44° C | 96% | 1005.5 hPa | 2.29 mm | 0.45 m/s, 295° | 6 W/m² | - |
| 1778041671 | 9.44° C | 96% | 1005.6 hPa | 2.03 mm | 0.89 m/s, 51° | 5 W/m² | - |
| 1778041550 | 9.44° C | 96% | 1005.7 hPa | 2.03 mm | 0.45 m/s, 324° | 4 W/m² | - |
| 1778041491 | 9.44° C | 96% | 1005.8 hPa | 2.03 mm | 0.89 m/s, 14° | 5 W/m² | - |
| 1778041441 | 9.44° C | 96% | 1005.7 hPa | 2.03 mm | 0.45 m/s, 6° | 5 W/m² | - |
| 1778041370 | 9.44° C | 96% | 1005.7 hPa | 1.78 mm | 0.45 m/s, 53° | 6 W/m² | - |
| 1778041311 | 9.44° C | 96% | 1005.7 hPa | 1.78 mm | 0.89 m/s, 30° | 6 W/m² | - |
| 1778041250 | 9.44° C | 95% | 1005.6 hPa | 1.78 mm | 0.45 m/s, 334° | 5 W/m² | - |
| 1778041190 | 9.44° C | 95% | 1005.7 hPa | 1.78 mm | 0 m/s | 5 W/m² | - |
| 1778041130 | 9.44° C | 95% | 1005.7 hPa | 1.52 mm | 0.45 m/s, 60° | 5 W/m² | - |
| 1778041073 | 9.44° C | 95% | 1005.6 hPa | 1.52 mm | 0 m/s | 5 W/m² | - |
| 1778041013 | 9.44° C | 95% | 1005.9 hPa | 1.52 mm | 0.45 m/s, 17° | 5 W/m² | - |
| 1778040951 | 9.44° C | 95% | 1005.8 hPa | 1.52 mm | 0.89 m/s, 40° | 4 W/m² | - |
| 1778040890 | 9.44° C | 95% | 1006 hPa | 1.78 mm | 0.45 m/s, 33° | 3 W/m² | - |
| 1778040831 | 9.44° C | 95% | 1006 hPa | 1.52 mm | 0.89 m/s, 49° | 3 W/m² | - |
| 1778040771 | 9.44° C | 95% | 1005.9 hPa | 1.52 mm | 0 m/s | 3 W/m² | - |
| 1778040710 | 9.44° C | 95% | 1005.9 hPa | 1.52 mm | 0.45 m/s, 50° | 3 W/m² | - |
| 1778040651 | 9.44° C | 95% | 1005.8 hPa | 1.52 mm | 0 m/s | 3 W/m² | - |
| 1778040593 | 9.44° C | 95% | 1006 hPa | 1.52 mm | 0 m/s | 3 W/m² | - |
| 1778040531 | 9.44° C | 95% | 1005.8 hPa | 1.27 mm | 0.45 m/s, 13° | 2 W/m² | - |
| 1778040470 | 9.44° C | 95% | 1005.8 hPa | 1.27 mm | 0.45 m/s, 32° | 3 W/m² | - |
| 1778040412 | 9.44° C | 95% | 1005.7 hPa | 1.27 mm | 0.89 m/s, 1° | 3 W/m² | - |
| 1778040351 | 9.44° C | 95% | 1005.7 hPa | 1.27 mm | 0 m/s | 2 W/m² | - |
| 1778040290 | 9.44° C | 95% | 1005.8 hPa | 1.27 mm | 1.34 m/s, 328° | 3 W/m² | - |
* Rain latest hour (hover to see other rain measurements)
** Current wind speed in m/s (hover to see current wind gust speed)